Regional Weather Roundup
Issued by NWS

Home | Current Version | Previous Version | Graphics & Text | Print | Product List | Glossary Off
Versions: 1 2 3 4 5 6 7 8 9 10 11 12 13 14 15 16 17 18 19 20 21 22 23 24 25 26 27 28 29 30 31 32 33 34 35 36 37 38 39 40 41 42 43 44 45 46 47 48

000
ASUS45 KCYS 290010
RWRWY

WYOMING REGIONAL WEATHER ROUNDUP
NATIONAL WEATHER SERVICE CHEYENNE WY
600 PM MDT MON JUL 28 2014

NOTE:  "FAIR" INDICATES FEW OR NO CLOUDS BELOW 12,000 FEET
WITH NO SIGNIFICANT WEATHER AND/OR OBSTRUCTIONS TO VISIBILITY.

WYZ001-290100-
YELLOWSTONE NATIONAL PARK

CITY           SKY/WX    TMP DP  RH WIND       PRES   REMARKS
LK YELLOWSTONE   N/A     69  37  30 CALM      30.50R
6HR MIN TEMP:  69; 6HR MAX TEMP:  79;

W YELLOWSTONE  NOT AVBL

$$
WYZ002>013-054>058-071-098>099-290100-
NORTHERN WYOMING

CITY           SKY/WX    TMP DP  RH WIND       PRES   REMARKS
JACKSON        NOT AVBL
CODY           NOT AVBL
GREYBULL       MOSUNNY   96  31  10 VRB5      30.10F HX  90
6HR MIN TEMP:  84; 6HR MAX TEMP:  98;

WORLAND        MOSUNNY   93  32  11 N7        30.11F
6HR MIN TEMP:  84; 6HR MAX TEMP:  96;

SHERIDAN       MOSUNNY   87  48  25 E7        30.18F
6HR MIN TEMP:  84; 6HR MAX TEMP:  91;

BUFFALO        MOSUNNY   86  44  23 NW6       30.26F
6HR MIN TEMP:  78; 6HR MAX TEMP:  88;

GILLETTE       SUNNY     87  47  24 N13       30.21F
6HR MIN TEMP:  81; 6HR MAX TEMP:  89;

HULETT         FAIR      79  50  36 MISG      30.27
NEWCASTLE      FAIR      86  43  22 SE6       30.22

$$
WYZ014>020-022>026-101>103-290100-
CENTRAL WYOMING

CITY           SKY/WX    TMP DP  RH WIND       PRES   REMARKS
BIG PINEY      CLOUDY    81  33  17 NW14      30.32S
6HR MIN TEMP:  80; 6HR MAX TEMP:  90;

PINEDALE       CLOUDY    79  37  22 NW8       30.33S
DUBOIS         FAIR      72  36  26 S21G38    30.36S HAZE
LANDER         PTSUNNY   88  36  15 N7        30.19F
6HR MIN TEMP:  83; 6HR MAX TEMP:  95;

RIVERTON       PTSUNNY   88  27  11 NE9       30.20F
6HR MIN TEMP:  80; 6HR MAX TEMP:  92;

CASPER         SUNNY     89  34  14 E13G18    30.22F
6HR MIN TEMP:  81; 6HR MAX TEMP:  92;

DOUGLAS        SUNNY     89  39  17 SE7       30.23F
6HR MIN TEMP:  82; 6HR MAX TEMP:  91;


$$
WYZ021-027>030-104>119-290100-
SOUTHERN WYOMING

CITY           SKY/WX    TMP DP  RH WIND       PRES   REMARKS
EVANSTON       PTSUNNY   63  52  67 SW24      30.40S
6HR MIN TEMP:  63; 6HR MAX TEMP:  83;

FORT BRIDGER   CLOUDY    80  37  21 W9        30.35S
ROCK SPRINGS   CLOUDY    85  25  11 E3        30.27F
6HR MIN TEMP:  84; 6HR MAX TEMP:  90;

DIXON          FAIR      88  26  11 E8        30.28S
RAWLINS        MOSUNNY   84  33  16 E18       30.30F
6HR MIN TEMP:  82; 6HR MAX TEMP:  89;

SARATOGA       FAIR      86  41  20 E12G18    30.32S
LARAMIE        MOSUNNY   78  44  29 SE16      30.36F
6HR MIN TEMP:  75; 6HR MAX TEMP:  82;

CHEYENNE       MOSUNNY   79  52  38 E14       30.31F
6HR MIN TEMP:  78; 6HR MAX TEMP:  84;

TORRINGTON     SUNNY     88  47  24 E7        30.18F
6HR MIN TEMP:  79; 6HR MAX TEMP:  90;

PINE BLUFFS    MOCLDY    82  50  32 SE12      30.25F

$$


USA.gov is the U.S. government's official web portal to all federal, state and local government web resources and services.